Flag for France Weather past 2 weeks in Bastia, Corsica, France

Now
64 °F

Clear.


Feels Like: 64 °F
Forecast: 65 / 77 °F
Wind: 2 mph from South

Location: Bastia Airport

Current Time: Jul 23, 2014 at 6:13:10 AM

Latest Report: Jul 23, 2014 at 5:30 AM


Visibility: 10 mi

Pressure: 29.80 "Hg

Humidity: 73%

Dew point: 55 °F

Location of BastiaLocation

Historic Weather in Bastia — Graph

°F

Bastia temperature yesterday

Maximum temperature yesterday: 79 °F (at 1:00 PM)
Minimum temperature yesterday: 64 °F (at 3:00 AM)
Average temperature yesterday: 73 °F

Past Weeks' High & Low Weather Summary

 TemperatureHumidityPressure
High88 °F (Jul 16, 2:30 PM)94% (Jul 12, 5:30 AM)30.09 "Hg (Jul 12, 5:30 AM)
Low59 °F (Jul 13, 5:00 AM)25% (Jul 9, 5:30 PM)29.65 "Hg (Jul 10, 4:30 AM)
Average74 °F63%29.90 "Hg
* Reported Jul 8 5:00 AM — Jul 23 5:00 AM, Bastia, Weather by CustomWeather, © 2014

Note: Actual official high and low records may vary slightly from our data, if they occured in-between our weather recording intervals... More about our weather records

Advertising

Bastia weather history for previous 24 hours

 ConditionsComfort  
Time TempWeatherWind HumidityBarometerVisibility
5:00 AM
Jul 23
66 °FClear.6 mph68%29.80 "Hg10 mi
4:30 AM66 °FClear.7 mph68%29.80 "Hg10 mi
3:30 AM68 °FClear.9 mph64%29.80 "Hg10 mi
3:00 AM66 °FMild.3 mph68%29.80 "HgN/A
2:30 AM68 °FMild.5 mph64%29.80 "HgN/A
2:00 AM68 °FClear.7 mph69%29.83 "HgN/A
1:00 AM68 °FClear.5 mph69%29.83 "HgN/A
6:30 PM
Jul 22
79 °FScattered clouds.10 mph54%29.74 "HgN/A
6:00 PM79 °FScattered clouds.8 mph54%29.74 "HgN/A
5:30 PM79 °FScattered clouds.8 mph58%29.77 "HgN/A
5:00 PM79 °FScattered clouds.12 mph58%29.77 "HgN/A
4:30 PM79 °FPartly sunny.13 mph58%29.77 "HgN/A
4:00 PM79 °FPartly sunny.12 mph58%29.77 "HgN/A
3:30 PM79 °FPartly sunny.9 mph58%29.77 "HgN/A
3:00 PM79 °FScattered clouds.10 mph61%29.77 "HgN/A
2:30 PM79 °FScattered clouds.10 mph61%29.77 "HgN/A
2:00 PM79 °FScattered clouds.8 mph61%29.77 "HgN/A
1:30 PM77 °FScattered clouds.13 mph61%29.77 "HgN/A
1:00 PM79 °FScattered clouds.13 mph61%29.77 "HgN/A
12:30 PM77 °FPassing clouds.12 mph61%29.77 "HgN/A
12:00 PM77 °FPassing clouds.12 mph65%29.77 "HgN/A
11:30 AM77 °FPassing clouds.13 mph69%29.77 "HgN/A
11:00 AM75 °FScattered clouds.15 mph69%29.77 "HgN/A
10:30 AM75 °FScattered clouds.16 mph61%29.77 "HgN/A
10:00 AM73 °FBroken clouds.7 mph78%29.77 "HgN/A
9:30 AM68 °FBroken clouds.9 mph88%29.77 "HgN/A
9:00 AM70 °FBroken clouds.14 mph83%29.77 "Hg2 mi
8:30 AM72 °FBroken clouds.7 mph73%29.74 "HgN/A
8:00 AM72 °FSprinkles. Partly sunny.8 mph69%29.74 "Hg5 mi
7:30 AM72 °FLight rain. Partly sunny.9 mph69%29.74 "HgN/A
7:00 AM70 °FPassing clouds.10 mph78%29.74 "HgN/A
6:30 AM70 °FLight rain. Passing clouds.9 mph78%29.74 "HgN/A
6:00 AM70 °FLight rain. Passing clouds.No wind78%29.74 "HgN/A
Weather by CustomWeather, © 2014

See weather overviewHow to use our weather pages